[[{"header":{"parameterUnit":"m.s-1","parameterCategory":2,"la1":30.2991,"la2":30.254,"lo1":-89.0895,"lo2":-89.0444,"dx":0.0017,"dy":0.0017,"nx":28,"ny":28,"refTime":"2022-11-03T21:00:00:Z","depth":"0","parameterNumber":2,"parameterNumberName":"U-component_of_CURRENTS"},"data":[0,0,0,0,0,0,0,0,0,0,0,0,0,0,0,0,0,0,0,0,0,0,0,0,0,0,0,0,0,0,0,0,0,0,0,0,0,0,0,0,0,0,0,0,0,0,0,0,0,0,0,0,0,0,0,0,0,0,0.2853,0.2853,0,0.2756,0.2754,0.2752,0.261,0.2609,0.2607,0.2605,0.228,0.2273,0.2267,0,0,0,0,0,0,0,0,0,0,0,0,0,0.286,0.286,0.2853,0.2853,0.2852,0.2756,0.2754,0.2752,0.2611,0.2608,0.2606,0.2604,0.2283,0.2274,0.2266,0,0,0,0,0,0,0,0,0,0,0,0,0,0.2812,0.286,0.2853,0.2776,0.2768,0.2757,0.2754,0.2751,0.2611,0.2608,0.2606,0.2603,0.2285,0.2275,0.2265,0.2252,0,0,0.2233,0.2228,0,0,0,0,0,0,0,0,0.2815,0.2811,0.2788,0.2781,0.2773,0.2699,0.2638,0.2576,0.2612,0.2662,0.2605,0.2602,0.2406,0.2386,0.2365,0.2237,0.2223,0.2232,0.2225,0.2221,0.2218,0,0,0,0,0,0,0,0.2819,0.2814,0.2806,0.2788,0.2779,0.2727,0.2717,0.2626,0.254,0.2658,0.2649,0.2652,0.2399,0.2376,0.2356,0.2218,0.2232,0.2223,0.2216,0.2212,0.222,0.2226,0,0,0,0,0,0,0.2853,0.2818,0.281,0.2804,0.2797,0.273,0.2718,0.2719,0.2546,0.2521,0.2654,0.2646,0.2395,0.2369,0.2344,0.2406,0.2221,0.2211,0.2205,0.2214,0.2222,0.2229,0,0,0,0,0,0,0.2853,0.2853,0.2814,0.2815,0.2807,0.2734,0.2735,0.2719,0.2716,0.2547,0.2515,0.2672,0.2392,0.2359,0.2308,0.2388,0.2206,0.2197,0.2206,0.2216,0.2225,0.2473,0,0,0,0,0,0,0.2854,0.2854,0.287,0.2818,0.2809,0.2842,0.2738,0.2719,0.2724,0.2712,0.2551,0.2517,0.2388,0.2325,0.2298,0.2371,0.2188,0.2198,0.2211,0.2222,0.2457,0.249,0.2519,0,0,0,0,0,0.2854,0.2883,0.2871,0.287,0.2832,0.2846,0.2837,0.2769,0.2729,0.2751,0.2653,0.2523,0.2385,0.2321,0.2287,0.2359,0.2192,0.2207,0.2221,0.2443,0.2484,0.2518,0,0,0,0,0,0,0.2882,0.2871,0.2856,0.2876,0.2883,0.2825,0.2833,0.2807,0.2751,0.2727,0.2569,0.253,0.254,0.2431,0.2365,0.2414,0.2283,0.2292,0.2464,0.25,0.2531,0.2494,0.218,0,0,0,0,0,0.2907,0.2926,0.2917,0.2937,0.2947,0.2906,0.2904,0.2872,0.2819,0.2792,0.2686,0.2602,0.2578,0.252,0.2469,0.2453,0.2396,0.2499,0.2531,0.2557,0.2516,0.2554,0.2582,0.2277,0.2277,0.2277,0,0,0.2919,0.2921,0.2927,0.2947,0.2934,0.2952,0.2896,0.2915,0.2924,0.2763,0.2734,0.2705,0.2612,0.2623,0.2616,0.2525,0.2635,0.2575,0.2598,0.254,0.2572,0.26,0.2626,0.2287,0.2285,0.2284,0,0,0.2951,0.2966,0.2989,0.3009,0.3027,0.301,0.3037,0.3012,0.2999,0.2997,0.2924,0.2943,0.2842,0.2813,0.2784,0.2958,0.2825,0.297,0.3042,0.3085,0.3108,0.3127,0.3163,0.3183,0.2951,0.2952,0.2952,0,0.2966,0.2988,0.3004,0.3035,0.3045,0.3049,0.3074,0.3083,0.3044,0.304,0.3015,0.2991,0.2936,0.2963,0.3042,0.302,0.301,0.2898,0.3119,0.3137,0.3152,0.3183,0.3202,0.2966,0.2964,0.2963,0.2961,0,0.3006,0.3031,0.3055,0.3088,0.3116,0.3146,0.3167,0.3191,0.319,0.3182,0.3236,0.3205,0.3166,0.3224,0.3168,0.3278,0.3232,0.318,0.3008,0.3196,0.322,0.3235,0.2985,0.298,0.2976,0.2973,0,0,0.2996,0.3066,0.3069,0.3085,0.3142,0.3159,0.3215,0.325,0.3265,0.3302,0.332,0.339,0.338,0.3353,0.3341,0.339,0.3555,0.3332,0.3328,0.3338,0.3648,0.3613,0.3625,0.3537,0.354,0.3542,0.3643,0,0.3011,0.3064,0.31,0.3144,0.3169,0.3205,0.3246,0.3287,0.3317,0.3342,0.3395,0.3413,0.3429,0.3431,0.3503,0.3515,0.3594,0.3531,0.3484,0.3482,0.3404,0.3641,0.3593,0.3678,0.3657,0.3659,0.3661,0,0.3018,0.3054,0.3096,0.3151,0.3164,0.3193,0.3241,0.3282,0.3347,0.3369,0.3422,0.3437,0.3524,0.3519,0.3639,0.3592,0.3645,0.3676,0.3679,0.3543,0.3474,0.3476,0.3704,0.3546,0.3682,0.368,0.3679,0,0.2969,0.3041,0.3066,0.3088,0.3161,0.3178,0.3213,0.3277,0.3304,0.3373,0.3391,0.3484,0.3513,0.3603,0.3674,0.3661,0.3796,0.3772,0.3803,0.38,0.369,0.3672,0.3716,0.3891,0.389,0.389,0.389,0,0.2952,0.2969,0.3041,0.3052,0.3076,0.3141,0.3168,0.3214,0.3277,0.3308,0.3388,0.3424,0.3538,0.3615,0.3692,0.3787,0.3811,0.3848,0.3838,0.3787,0.3778,0.3569,0.3463,0.3894,0.3893,0.3892,0.3892,0,0.2882,0.2936,0.2963,0.3033,0.305,0.3061,0.3124,0.3146,0.3214,0.3255,0.3274,0.3388,0.3496,0.3603,0.3741,0.3793,0.378,0.3917,0.3848,0.3829,0.3706,0.3616,0.3497,0.34,0.3985,0.3985,0.3985,0,0.2842,0.2854,0.2921,0.2932,0.2957,0.2989,0.3011,0.3093,0.3123,0.3228,0.3242,0.3361,0.3441,0.3627,0.3756,0.3896,0.3761,0.3913,0.3895,0.372,0.3614,0.3458,0.3373,0.3883,0.3882,0.3881,0.3881,0,0.276,0.2789,0.2816,0.2843,0.2864,0.2895,0.2937,0.295,0.3048,0.3099,0.3175,0.3248,0.3451,0.3573,0.3751,0.384,0.3706,0.3903,0.3746,0.3566,0.337,0.3263,0.3781,0.3875,0.3875,0.3876,0.3876,0.3876,0.2681,0.2684,0.2722,0.2741,0.2768,0.2786,0.2782,0.2844,0.2885,0.2945,0.3074,0.317,0.339,0.3648,0.3683,0.371,0.3663,0.3671,0.3593,0.3464,0.3314,0.3815,0.3867,0.3867,0.3868,0.3868,0.3868,0,0.2566,0.2595,0.2615,0.2636,0.263,0.2684,0.2717,0.2708,0.2727,0.2841,0.2917,0.3134,0.3263,0.3411,0.3536,0.3422,0.3318,0.331,0.3084,0.3031,0.3524,0.3461,0.3394,0.3394,0.3394,0.3394,0.3394,0.3394,0.2506,0.2491,0.2519,0.2488,0.2505,0.2475,0.2479,0.249,0.2557,0.2626,0.2736,0.2866,0.3057,0.3151,0.3086,0.3059,0.2788,0.2717,0.2615,0.2957,0.2984,0.3009,0.2927,0.275,0.2749,0.2088,0.2083,0.2078]},{"header":{"parameterUnit":"m.s-1","parameterCategory":2,"la1":30.2991,"la2":30.254,"lo1":-89.0895,"lo2":-89.0444,"dx":0.0017,"dy":0.0017,"nx":28,"ny":28,"refTime":"2022-11-03T21:00:00:Z","depth":"0","parameterNumber":3,"parameterNumberName":"V-component_of_CURRENTS"},"data":[0,0,0,0,0,0,0,0,0,0,0,0,0,0,0,0,0,0,0,0,0,0,0,0,0,0,0,0,0,0,0,0,0,0,0,0,0,0,0,0,0,0,0,0,0,0,0,0,0,0,0,0,0,0,0,0,0,0,0.0188,0.0188,0,0.0141,0.014,0.014,0.0073,0.0072,0.0071,0.007,-0.0092,-0.0096,-0.0099,0,0,0,0,0,0,0,0,0,0,0,0,0,0.0166,0.0167,0.0188,0.0188,0.0187,0.0141,0.014,0.0139,0.0073,0.0072,0.0071,0.007,-0.0091,-0.0095,-0.01,0,0,0,0,0,0,0,0,0,0,0,0,0,0.0151,0.0167,0.0188,0.015,0.0146,0.0141,0.014,0.0139,0.0073,0.0072,0.007,0.0069,-0.009,-0.0095,-0.01,-0.0104,0,0,-0.0116,-0.0118,0,0,0,0,0,0,0,0,0.0152,0.0151,0.0156,0.0153,0.0149,0.0113,0.0073,0.0053,0.0073,0.0098,0.007,0.0068,-0.0032,-0.0042,-0.0049,-0.0111,-0.0118,-0.0116,-0.012,-0.0122,-0.0123,0,0,0,0,0,0,0,0.0153,0.0153,0.0167,0.0156,0.0151,0.0117,0.0114,0.0069,0.0038,0.0096,0.0092,0.0091,-0.0035,-0.0044,-0.0054,-0.0121,-0.0116,-0.0121,-0.0124,-0.0126,-0.0151,-0.0148,0,0,0,0,0,0,0.0168,0.0154,0.0168,0.0166,0.0149,0.0119,0.0115,0.0124,0.0041,0.0028,0.0092,0.0088,-0.0034,-0.0048,-0.006,-0.004,-0.0122,-0.0127,-0.013,-0.0153,-0.015,-0.0147,0,0,0,0,0,0,0.0168,0.017,0.017,0.016,0.0158,0.0122,0.0132,0.0124,0.0117,0.0039,0.0024,0.0094,-0.0036,-0.0053,-0.0086,-0.0049,-0.0129,-0.0134,-0.0156,-0.0152,-0.0149,-0.0021,0,0,0,0,0,0,0.0168,0.0171,0.0178,0.0162,0.0159,0.0179,0.0133,0.0124,0.012,0.0114,0.0036,0.0019,-0.0038,-0.0077,-0.0091,-0.0057,-0.0138,-0.0159,-0.0154,-0.015,-0.0028,-0.0013,-0.0001,0,0,0,0,0,0.0167,0.0181,0.0179,0.0181,0.0173,0.018,0.0176,0.0143,0.0121,0.0129,0.0079,0.0021,-0.0057,-0.008,-0.0096,-0.0064,-0.0161,-0.0156,-0.015,-0.0034,-0.0016,-0.0001,0,0,0,0,0,0,0.0167,0.0176,0.0173,0.0187,0.0192,0.017,0.0169,0.0156,0.0125,0.0113,0.0038,0.002,0.0012,-0.0039,-0.0062,-0.0052,-0.0113,-0.011,-0.0019,-0.0003,0.0011,0.0002,-0.0142,0,0,0,0,0,0.0177,0.0193,0.0197,0.0209,0.0215,0.0198,0.0195,0.0182,0.0156,0.0141,0.0091,0.0046,0.0025,-0.0001,-0.0034,-0.0042,-0.0076,-0.0025,-0.0011,0.0001,-0.0013,0.0003,0.0017,-0.0129,-0.0129,-0.0129,0,0,0.0179,0.0187,0.0194,0.0211,0.0208,0.0217,0.0192,0.0199,0.0203,0.0127,0.011,0.0089,0.0037,0.0037,0.003,-0.0007,0.0028,0.0008,0.0018,-0.0003,0.001,0.0024,0.0037,-0.0126,-0.0126,-0.0127,0,0,0.0188,0.0204,0.0217,0.0228,0.0238,0.0236,0.0246,0.024,0.0234,0.0231,0.019,0.0196,0.0138,0.0126,0.0109,0.018,0.0107,0.0172,0.0221,0.0239,0.0251,0.0261,0.0245,0.0252,0.0172,0.0172,0.0173,0,0.0185,0.0205,0.0222,0.0236,0.0243,0.025,0.0262,0.0267,0.025,0.025,0.0238,0.0215,0.0187,0.0194,0.0228,0.0211,0.0188,0.0161,0.0257,0.0265,0.0273,0.0254,0.0261,0.0179,0.0178,0.0178,0.0177,0,0.02,0.0217,0.0228,0.0252,0.0267,0.0283,0.0299,0.0313,0.0316,0.0315,0.0336,0.0321,0.03,0.0321,0.0291,0.0339,0.0295,0.028,0.0212,0.0295,0.0271,0.0275,0.0189,0.0187,0.0185,0.0183,0,0,0.0184,0.0229,0.023,0.0246,0.0277,0.0292,0.0318,0.0342,0.0357,0.0372,0.0392,0.0411,0.0409,0.0392,0.038,0.0407,0.0468,0.0367,0.0365,0.0346,0.0479,0.0412,0.0409,0.0466,0.0467,0.0469,0.0442,0,0.0184,0.0216,0.0238,0.0267,0.0286,0.0311,0.0335,0.0361,0.0384,0.0408,0.0431,0.0445,0.0433,0.0442,0.0471,0.0466,0.0483,0.0474,0.0403,0.04,0.0328,0.0414,0.0407,0.038,0.0446,0.0446,0.0447,0,0.0179,0.0206,0.0235,0.0282,0.0292,0.0312,0.0356,0.0381,0.0423,0.0441,0.0468,0.0473,0.0513,0.0505,0.0525,0.0514,0.0501,0.0501,0.05,0.0388,0.0342,0.0306,0.0384,0.0253,0.0452,0.0452,0.0451,0,0.0155,0.0198,0.0224,0.0239,0.0294,0.0312,0.0341,0.0386,0.0419,0.0463,0.0494,0.0517,0.0544,0.0544,0.0541,0.0533,0.0558,0.0544,0.0465,0.0459,0.041,0.0397,0.0345,0.0559,0.0559,0.0559,0.0559,0,0.0143,0.016,0.0216,0.0231,0.0271,0.0306,0.0352,0.0383,0.0438,0.0487,0.0507,0.055,0.0561,0.0572,0.0553,0.0516,0.0561,0.0477,0.0457,0.0455,0.0447,0.0292,0.0216,0.0558,0.0558,0.0558,0.0559,0,0.0113,0.0145,0.0183,0.0243,0.0263,0.0292,0.0366,0.0406,0.0449,0.0516,0.0534,0.0584,0.0597,0.0583,0.0587,0.053,0.0424,0.0475,0.0452,0.043,0.0214,0.0146,0.005,-0.0019,0.0379,0.0378,0.0376,0,0.0102,0.012,0.0191,0.0224,0.0253,0.0304,0.0349,0.0406,0.0455,0.0539,0.0576,0.0606,0.0644,0.06,0.0522,0.0454,0.0368,0.0367,0.0357,0.0201,0.0112,0.0077,0.0025,0.035,0.0348,0.0347,0.0346,0,0.0093,0.0119,0.0162,0.0227,0.0277,0.0339,0.0404,0.0448,0.0522,0.0578,0.0655,0.069,0.0647,0.0605,0.0486,0.0413,0.0249,0.0335,0.0205,0.0104,0.0034,-0.0041,0.0338,0.0335,0.0336,0.0337,0.0338,0.0338,0.0092,0.0121,0.018,0.0241,0.0301,0.0376,0.0431,0.0507,0.0589,0.071,0.0723,0.0833,0.0739,0.059,0.0411,0.0125,0.0146,0.0056,-0.0008,-0.0025,-0.0109,0.0217,0.0169,0.0169,0.0169,0.0169,0.0169,0,0.0094,0.0135,0.0193,0.0274,0.034,0.0372,0.0473,0.0544,0.0645,0.0796,0.0877,0.0981,0.0768,0.0556,0.0188,-0.0115,-0.0215,-0.028,-0.0315,-0.0347,-0.0023,-0.0044,-0.0178,-0.0178,-0.0178,-0.0177,-0.0177,-0.0177,0.01,0.0151,0.0186,0.029,0.035,0.0445,0.0508,0.0619,0.075,0.0985,0.1156,0.1274,0.1198,0.0378,-0.0223,-0.04,-0.0591,-0.0658,-0.0754,-0.0527,-0.05,-0.0473,-0.051,-0.0739,-0.074,-0.1031,-0.1034,-0.1036]}],[{"header":{"parameterUnit":"m.s-1","parameterCategory":2,"la1":30.2991,"la2":30.254,"lo1":-89.0895,"lo2":-89.0444,"dx":0.0017,"dy":0.0017,"nx":28,"ny":28,"refTime":"2022-11-03T21:00:00:Z","depth":"2","parameterNumber":2,"parameterNumberName":"U-component_of_CURRENTS"},"data":[0,0,0,0,0,0,0,0,0,0,0,0,0,0,0,0,0,0,0,0,0,0,0,0,0,0,0,0,0,0,0,0,0,0,0,0,0,0,0,0,0,0,0,0,0,0,0,0,0,0,0,0,0,0,0,0,0,0,0.1857,0.1858,0,0.1883,0.1883,0.1883,0.187,0.187,0.187,0.187,0.1808,0.1807,0.1805,0,0,0,0,0,0,0,0,0,0,0,0,0,0.1825,0.1825,0.1857,0.1858,0.1858,0.1883,0.1883,0.1883,0.187,0.187,0.187,0.187,0.1808,0.1807,0.1805,0,0,0,0,0,0,0,0,0,0,0,0,0,0.1839,0.1825,0.1857,0.1859,0.1859,0.1883,0.1883,0.1883,0.187,0.187,0.187,0.1869,0.1809,0.1807,0.1805,0.1799,0,0,0.1798,0.1797,0,0,0,0,0,0,0,0,0.1838,0.184,0.1858,0.1859,0.1859,0.1877,0.185,0.1852,0.1871,0.1861,0.187,0.1869,0.1826,0.1823,0.1823,0.1796,0.1794,0.1798,0.1797,0.1796,0.1795,0,0,0,0,0,0,0,0.1837,0.1839,0.1863,0.1858,0.186,0.1868,0.1869,0.185,0.184,0.1862,0.1862,0.1873,0.1825,0.1825,0.1821,0.1793,0.1798,0.1796,0.1795,0.1794,0.1821,0.1823,0,0,0,0,0,0,0.1842,0.1838,0.1862,0.1864,0.1853,0.1869,0.187,0.1868,0.1842,0.184,0.1873,0.1872,0.1829,0.1824,0.1819,0.1884,0.1796,0.1794,0.1793,0.1819,0.1822,0.1824,0,0,0,0,0,0,0.1841,0.1844,0.1861,0.1856,0.1859,0.1871,0.1868,0.1869,0.1892,0.1853,0.1848,0.1899,0.1829,0.1822,0.1834,0.1878,0.1793,0.1791,0.1817,0.182,0.1823,0.1966,0,0,0,0,0,0,0.184,0.1843,0.1855,0.1856,0.186,0.1881,0.1869,0.187,0.19,0.19,0.1873,0.1865,0.1828,0.1838,0.1832,0.1874,0.1789,0.1814,0.1818,0.1822,0.1959,0.1974,0.1986,0,0,0,0,0,0.1838,0.1839,0.1855,0.1859,0.1872,0.1882,0.1884,0.1888,0.1902,0.1909,0.191,0.1867,0.1857,0.1838,0.183,0.1873,0.1813,0.1817,0.1822,0.1953,0.1971,0.1986,0,0,0,0,0,0,0.1827,0.1839,0.1856,0.1861,0.1881,0.1881,0.1893,0.191,0.1918,0.1925,0.1893,0.1885,0.1917,0.1873,0.1853,0.1892,0.1828,0.1831,0.193,0.1947,0.196,0.1894,0.1788,0,0,0,0,0,0.1836,0.1842,0.186,0.187,0.188,0.19,0.1913,0.1922,0.1928,0.1933,0.1928,0.1921,0.1926,0.192,0.191,0.1926,0.1884,0.1948,0.1962,0.1974,0.1915,0.1932,0.1941,0.1839,0.1839,0.1838,0,0,0.1834,0.1846,0.1849,0.187,0.1885,0.1889,0.1905,0.1929,0.194,0.1923,0.1947,0.1972,0.1944,0.1973,0.1981,0.1942,0.1993,0.1979,0.199,0.1923,0.1937,0.1947,0.1955,0.1842,0.1841,0.1841,0,0,0.1818,0.1848,0.1842,0.1859,0.1893,0.1904,0.1921,0.1949,0.197,0.2006,0.2012,0.2057,0.2054,0.2052,0.2046,0.2122,0.2075,0.2141,0.2146,0.2167,0.2175,0.2181,0.2193,0.2198,0.2139,0.2139,0.2139,0,0.1821,0.1814,0.1845,0.1846,0.1861,0.1912,0.1912,0.1938,0.1975,0.1995,0.2021,0.2072,0.2078,0.2098,0.2139,0.215,0.2149,0.2095,0.2184,0.2189,0.2192,0.2202,0.2207,0.2146,0.2145,0.2145,0.2144,0,0.1786,0.1799,0.18,0.1815,0.1838,0.1851,0.1893,0.1934,0.1989,0.2016,0.2083,0.2121,0.2139,0.2185,0.2183,0.2227,0.2219,0.2215,0.2142,0.2211,0.2218,0.222,0.2157,0.2154,0.2152,0.215,0,0,0.1729,0.1768,0.1768,0.1781,0.1827,0.1838,0.1875,0.1913,0.1945,0.2017,0.2055,0.2125,0.2174,0.2168,0.2212,0.2233,0.2314,0.2239,0.2237,0.2247,0.2361,0.2365,0.2367,0.2344,0.2344,0.2344,0.2374,0,0.1692,0.1692,0.172,0.1729,0.1734,0.1798,0.1827,0.1879,0.1944,0.2,0.2066,0.2124,0.216,0.2214,0.2243,0.2293,0.2316,0.2304,0.2288,0.2286,0.228,0.2368,0.2181,0.2191,0.2376,0.2376,0.2376,0,0.1627,0.1646,0.1652,0.17,0.1709,0.1732,0.18,0.1837,0.192,0.1979,0.2046,0.2101,0.2165,0.2197,0.2265,0.2264,0.2304,0.2334,0.2337,0.2265,0.2292,0.214,0.2187,0.2378,0.2378,0.2378,0.2378,0,0.1556,0.1587,0.1599,0.1613,0.1678,0.1709,0.1756,0.1836,0.1882,0.1977,0.2029,0.2094,0.2166,0.2202,0.2294,0.2286,0.2361,0.2359,0.2384,0.2385,0.2172,0.2154,0.2377,0.2377,0.2377,0.2377,0.2377,0,0.1485,0.1492,0.1578,0.1583,0.1615,0.168,0.1731,0.1791,0.1883,0.1937,0.2026,0.2083,0.2175,0.2243,0.2287,0.2354,0.2362,0.237,0.239,0.2225,0.2213,0.2308,0.23,0.2378,0.2378,0.2378,0.2377,0,0.1398,0.1448,0.1468,0.1551,0.1582,0.1614,0.172,0.1758,0.1858,0.1935,0.1973,0.2091,0.2201,0.2281,0.2366,0.2364,0.2412,0.2432,0.2236,0.2233,0.2413,0.2412,0.2429,0.2429,0.243,0.243,0.243,0,0.1351,0.1354,0.1443,0.1472,0.1518,0.1585,0.1633,0.174,0.1792,0.1937,0.1967,0.2107,0.2205,0.2332,0.2345,0.2403,0.2469,0.2265,0.2202,0.2399,0.2417,0.2416,0.2414,0.1993,0.1989,0.1987,0.1984,0,0.1265,0.131,0.1339,0.1408,0.1464,0.1518,0.1603,0.1643,0.1775,0.1849,0.1969,0.2059,0.2189,0.2177,0.2265,0.2269,0.2237,0.2212,0.246,0.2027,0.1995,0.2012,0.2022,0.196,0.1962,0.1964,0.1965,0.1966,0.121,0.122,0.1277,0.1338,0.1398,0.1462,0.1499,0.1593,0.1675,0.1762,0.1869,0.1917,0.198,0.2,0.2007,0.2008,0.2147,0.2059,0.2064,0.2072,0.2035,0.2007,0.1966,0.1968,0.197,0.1972,0.1974,0,0.1137,0.1173,0.121,0.1277,0.1321,0.1396,0.148,0.149,0.1578,0.1622,0.1697,0.1553,0.1606,0.1695,0.1647,0.1694,0.1633,0.1664,0.1553,0.1581,0.1604,0.1538,0.134,0.1338,0.1336,0.1334,0,0,0.11,0.1115,0.1144,0.1194,0.1262,0.1316,0.1372,0.1377,0.1388,0.133,0.1304,0.1402,0.1551,0.1341,0.1396,0.1356,0.1436,0.1314,0.1822,0.1712,0.1731,0.1843,0.1776,0,0,0,0,0]},{"header":{"parameterUnit":"m.s-1","parameterCategory":2,"la1":30.2991,"la2":30.254,"lo1":-89.0895,"lo2":-89.0444,"dx":0.0017,"dy":0.0017,"nx":28,"ny":28,"refTime":"2022-11-03T21:00:00:Z","depth":"2","parameterNumber":3,"parameterNumberName":"V-component_of_CURRENTS"},"data":[0,0,0,0,0,0,0,0,0,0,0,0,0,0,0,0,0,0,0,0,0,0,0,0,0,0,0,0,0,0,0,0,0,0,0,0,0,0,0,0,0,0,0,0,0,0,0,0,0,0,0,0,0,0,0,0,0,0,-0.0527,-0.0527,0,-0.0534,-0.0534,-0.0534,-0.0511,-0.051,-0.051,-0.0509,-0.0492,-0.0492,-0.0492,0,0,0,0,0,0,0,0,0,0,0,0,0,-0.0514,-0.0514,-0.0527,-0.0527,-0.0527,-0.0534,-0.0534,-0.0534,-0.0511,-0.051,-0.0509,-0.0509,-0.0492,-0.0492,-0.0492,0,0,0,0,0,0,0,0,0,0,0,0,0,-0.0518,-0.0514,-0.0527,-0.0518,-0.0517,-0.0534,-0.0534,-0.0534,-0.0511,-0.051,-0.0509,-0.0509,-0.0492,-0.0492,-0.0492,-0.0509,0,0,-0.0492,-0.0492,0,0,0,0,0,0,0,0,-0.0518,-0.0519,-0.0519,-0.0519,-0.0518,-0.0522,-0.0523,-0.0525,-0.0511,-0.0512,-0.0509,-0.0508,-0.0501,-0.05,-0.0502,-0.0508,-0.0507,-0.0492,-0.0492,-0.0492,-0.0492,0,0,0,0,0,0,0,-0.0518,-0.0518,-0.0528,-0.0519,-0.0519,-0.052,-0.052,-0.0523,-0.0509,-0.0512,-0.051,-0.0514,-0.05,-0.0502,-0.0501,-0.0507,-0.0492,-0.0492,-0.0492,-0.0492,-0.0525,-0.0526,0,0,0,0,0,0,-0.052,-0.0518,-0.0528,-0.0529,-0.0518,-0.0521,-0.0521,-0.052,-0.051,-0.0508,-0.0515,-0.0513,-0.0502,-0.0501,-0.05,-0.0505,-0.0492,-0.0492,-0.0492,-0.0524,-0.0525,-0.0526,0,0,0,0,0,0,-0.052,-0.0521,-0.0528,-0.0525,-0.0526,-0.0522,-0.0522,-0.0521,-0.0521,-0.0513,-0.051,-0.0516,-0.0501,-0.05,-0.0507,-0.0504,-0.0492,-0.0492,-0.0523,-0.0525,-0.0526,-0.0524,0,0,0,0,0,0,-0.0519,-0.052,-0.0522,-0.0525,-0.0526,-0.0534,-0.0523,-0.0522,-0.0525,-0.0523,-0.0513,-0.051,-0.0501,-0.0507,-0.0507,-0.0504,-0.0492,-0.0522,-0.0524,-0.0525,-0.0523,-0.0525,-0.0526,0,0,0,0,0,-0.0519,-0.052,-0.0522,-0.0524,-0.0528,-0.0534,-0.0535,-0.0529,-0.0526,-0.0525,-0.0525,-0.0511,-0.0517,-0.0508,-0.0508,-0.0505,-0.0521,-0.0523,-0.0525,-0.0522,-0.0524,-0.0526,0,0,0,0,0,0,-0.0513,-0.0518,-0.052,-0.0523,-0.0529,-0.0531,-0.0532,-0.0533,-0.0534,-0.053,-0.0523,-0.0521,-0.0525,-0.0524,-0.0515,-0.0522,-0.0517,-0.0518,-0.0514,-0.0516,-0.0518,-0.0515,-0.0492,0,0,0,0,0,-0.0516,-0.0518,-0.0525,-0.0528,-0.053,-0.0534,-0.0537,-0.0534,-0.0536,-0.0535,-0.0531,-0.0531,-0.0535,-0.0532,-0.0535,-0.054,-0.0539,-0.054,-0.0542,-0.0543,-0.0543,-0.0554,-0.0556,-0.0532,-0.0532,-0.0532,0,0,-0.0516,-0.0519,-0.0521,-0.0527,-0.053,-0.053,-0.0533,-0.0535,-0.0535,-0.0534,-0.0533,-0.0538,-0.0541,-0.0544,-0.0545,-0.0539,-0.0548,-0.0546,-0.0546,-0.0545,-0.0556,-0.0558,-0.056,-0.0534,-0.0533,-0.0533,0,0,-0.0513,-0.0519,-0.0518,-0.0521,-0.0527,-0.053,-0.0532,-0.0536,-0.0537,-0.0545,-0.0544,-0.0552,-0.0555,-0.0555,-0.0556,-0.0574,-0.0561,-0.0575,-0.0574,-0.0585,-0.0587,-0.0588,-0.058,-0.0581,-0.0571,-0.0571,-0.0571,0,-0.0515,-0.0508,-0.052,-0.0517,-0.0515,-0.0529,-0.0522,-0.0533,-0.0539,-0.0539,-0.0542,-0.0557,-0.0559,-0.0566,-0.0572,-0.0576,-0.0576,-0.0561,-0.0586,-0.0588,-0.0589,-0.058,-0.0581,-0.0571,-0.0571,-0.0571,-0.0571,0,-0.0505,-0.05,-0.05,-0.0499,-0.0503,-0.0499,-0.0512,-0.0517,-0.0524,-0.0531,-0.0544,-0.0559,-0.0562,-0.057,-0.0575,-0.0588,-0.0582,-0.0588,-0.0575,-0.0591,-0.0581,-0.0582,-0.0571,-0.0571,-0.0571,-0.0571,0,0,-0.0501,-0.0494,-0.0493,-0.0475,-0.0488,-0.048,-0.0493,-0.0498,-0.0493,-0.0519,-0.0513,-0.0545,-0.0555,-0.056,-0.0572,-0.0588,-0.0599,-0.0593,-0.0594,-0.0576,-0.0609,-0.0547,-0.0542,-0.0609,-0.061,-0.061,-0.0593,0,-0.0486,-0.0464,-0.0473,-0.0447,-0.0429,-0.0447,-0.0452,-0.0462,-0.0475,-0.0475,-0.051,-0.0513,-0.0551,-0.0548,-0.0576,-0.0585,-0.0603,-0.0602,-0.0605,-0.0604,-0.054,-0.0541,-0.0517,-0.0495,-0.0594,-0.0594,-0.0594,0,-0.0463,-0.0448,-0.0423,-0.0395,-0.0391,-0.0392,-0.0384,-0.0391,-0.0415,-0.0422,-0.0449,-0.0469,-0.0498,-0.0528,-0.0571,-0.0567,-0.0593,-0.0611,-0.061,-0.0554,-0.0544,-0.0499,-0.0493,-0.0596,-0.0596,-0.0595,-0.0595,0,-0.0417,-0.0402,-0.0374,-0.0368,-0.0357,-0.0356,-0.036,-0.0378,-0.0366,-0.0393,-0.0376,-0.0429,-0.0429,-0.0488,-0.0526,-0.0549,-0.0559,-0.0591,-0.0564,-0.0559,-0.0539,-0.0531,-0.0631,-0.0631,-0.0631,-0.0631,-0.0631,0,-0.0369,-0.0343,-0.0353,-0.033,-0.0299,-0.0317,-0.0292,-0.0304,-0.0311,-0.0273,-0.0348,-0.0316,-0.0421,-0.0435,-0.0498,-0.0512,-0.0536,-0.0558,-0.0551,-0.0536,-0.0528,-0.0621,-0.062,-0.0631,-0.0631,-0.0631,-0.0631,0,-0.0297,-0.0311,-0.027,-0.0267,-0.027,-0.0247,-0.0238,-0.0208,-0.0239,-0.019,-0.0191,-0.0222,-0.0236,-0.0323,-0.0387,-0.0446,-0.0485,-0.0489,-0.045,-0.0438,-0.0491,-0.049,-0.0467,-0.0464,-0.0462,-0.0461,-0.0459,0,-0.0248,-0.0224,-0.0214,-0.0189,-0.0187,-0.0169,-0.0145,-0.0168,-0.0125,-0.011,-0.0058,-0.0078,-0.0021,-0.0095,-0.0227,-0.0313,-0.0388,-0.0365,-0.0415,-0.0478,-0.0475,-0.0477,-0.0479,-0.039,-0.0388,-0.0387,-0.0386,0,-0.0145,-0.0156,-0.0119,-0.008,-0.0054,-0.0012,0.0019,0.0074,0.0073,0.0127,0.0223,0.0265,0.0165,0.0101,-0.0053,-0.0135,-0.0353,-0.0334,-0.0411,-0.0425,-0.0402,-0.04,-0.0405,-0.0372,-0.0374,-0.0375,-0.0375,-0.0376,-0.0067,-0.0021,0.0012,0.0062,0.0089,0.0168,0.025,0.0318,0.0428,0.0577,0.0539,0.0619,0.0395,0.0269,0.0069,-0.019,-0.0197,-0.0292,-0.0299,-0.0307,-0.029,-0.0264,-0.0205,-0.0205,-0.0206,-0.0206,-0.0206,0,0.0052,0.0087,0.0154,0.0229,0.0316,0.0261,0.0384,0.0536,0.073,0.081,0.0947,0.0811,0.0697,0.0395,0.0042,-0.0146,-0.0211,-0.0225,-0.0282,-0.0292,-0.0301,-0.0289,-0.0201,-0.0202,-0.0202,-0.0203,0,0,0.012,0.0224,0.0266,0.0435,0.0465,0.0601,0.0686,0.091,0.1025,0.1186,0.1177,0.1246,0.0797,0.0561,0.0251,0.0017,-0.0086,-0.0022,-0.0,-0.0039,-0.0046,-0.031,-0.0295,0,0,0,0,0]}],[{"header":{"parameterUnit":"m.s-1","parameterCategory":2,"la1":30.2991,"la2":30.254,"lo1":-89.0895,"lo2":-89.0444,"dx":0.0017,"dy":0.0017,"nx":28,"ny":28,"refTime":"2022-11-03T21:00:00:Z","depth":"4","parameterNumber":2,"parameterNumberName":"U-component_of_CURRENTS"},"data":[0,0,0,0,0,0,0,0,0,0,0,0,0,0,0,0,0,0,0,0,0,0,0,0,0,0,0,0,0,0,0,0,0,0,0,0,0,0,0,0,0,0,0,0,0,0,0,0,0,0,0,0,0,0,0,0,0,0,0.0307,0.0307,0,0.0395,0.0397,0.0398,0.0487,0.0487,0.0488,0.0489,0.0621,0.0624,0.0627,0,0,0,0,0,0,0,0,0,0,0,0,0,0.0241,0.0242,0.0307,0.0307,0.0308,0.0395,0.0397,0.0399,0.0487,0.0487,0.0488,0.0489,0.062,0.0623,0.0627,0,0,0,0,0,0,0,0,0,0,0,0,0,0.0298,0.0242,0.0307,0.0359,0.0364,0.0395,0.0397,0.0399,0.0486,0.0488,0.0489,0.049,0.0619,0.0623,0.0627,0.0633,0,0,0.0641,0.0642,0,0,0,0,0,0,0,0,0.0295,0.0301,0.035,0.0355,0.0361,0.0427,0.0422,0.0478,0.0486,0.0445,0.0489,0.049,0.0556,0.0565,0.0587,0.0639,0.0645,0.0641,0.0644,0.0645,0.0647,0,0,0,0,0,0,0,0.0291,0.0298,0.0347,0.0351,0.0357,0.0386,0.0396,0.0433,0.0498,0.0449,0.0454,0.0456,0.056,0.0582,0.059,0.0647,0.0641,0.0645,0.0647,0.0649,0.0897,0.0901,0,0,0,0,0,0,0.0267,0.0294,0.0344,0.0349,0.0324,0.0386,0.0397,0.0409,0.0497,0.051,0.0455,0.0459,0.0574,0.0585,0.0595,0.0703,0.0645,0.0649,0.0652,0.0893,0.0898,0.0902,0,0,0,0,0,0,0.0265,0.0271,0.0341,0.0319,0.0329,0.0385,0.0398,0.041,0.0488,0.05,0.0515,0.0526,0.0576,0.0589,0.0684,0.0705,0.0651,0.0655,0.0888,0.0895,0.09,0.0857,0,0,0,0,0,0,0.0263,0.027,0.0298,0.0317,0.0329,0.0382,0.0397,0.041,0.048,0.0489,0.0565,0.0575,0.0577,0.0678,0.0689,0.071,0.0659,0.0883,0.0891,0.0898,0.0853,0.0861,0.0867,0,0,0,0,0,0.0261,0.0268,0.0299,0.0306,0.0357,0.0383,0.0394,0.0439,0.0483,0.0517,0.0586,0.0576,0.0734,0.0684,0.0696,0.0719,0.088,0.0889,0.0898,0.085,0.0859,0.0867,0,0,0,0,0,0,0.0252,0.0278,0.0312,0.0331,0.0372,0.0397,0.043,0.0474,0.0556,0.0591,0.0616,0.0631,0.0716,0.0752,0.0697,0.0826,0.081,0.0822,0.0771,0.0779,0.0786,0.077,0.0662,0,0,0,0,0,0.0262,0.028,0.0316,0.0337,0.0363,0.0418,0.0448,0.0489,0.0544,0.0586,0.0631,0.0704,0.0754,0.0796,0.0842,0.0914,0.0918,0.095,0.0956,0.0961,0.0965,0.0991,0.0997,0.0932,0.0932,0.0932,0,0,0.0261,0.028,0.0293,0.0338,0.0379,0.0412,0.0442,0.0503,0.0554,0.0585,0.0685,0.0724,0.0782,0.0849,0.0893,0.0886,0.0986,0.0973,0.0975,0.0977,0.1,0.1006,0.101,0.0938,0.0937,0.0936,0,0,0.0251,0.0297,0.0315,0.0347,0.0413,0.0445,0.0476,0.0543,0.0609,0.0697,0.0731,0.0793,0.0887,0.0911,0.094,0.1029,0.1015,0.1066,0.1084,0.1109,0.1112,0.1115,0.1115,0.1119,0.1076,0.1075,0.1075,0,0.0262,0.0285,0.0326,0.035,0.0381,0.0464,0.0502,0.0569,0.0662,0.0714,0.0737,0.0876,0.0907,0.0979,0.1001,0.1033,0.1047,0.1025,0.1108,0.1111,0.1114,0.1115,0.1119,0.1074,0.1075,0.1075,0.1075,0,0.0262,0.0295,0.0308,0.0367,0.0409,0.0455,0.0536,0.0608,0.0696,0.0754,0.087,0.0922,0.1001,0.1019,0.1029,0.1089,0.1087,0.1093,0.1058,0.1116,0.1116,0.112,0.1073,0.1073,0.1074,0.1074,0,0,0.0251,0.0302,0.031,0.0348,0.0432,0.0466,0.0551,0.0646,0.0708,0.082,0.0904,0.0982,0.1029,0.1069,0.11,0.1116,0.1128,0.1119,0.112,0.107,0.1172,0.1104,0.1102,0.1143,0.1144,0.1145,0.1153,0,0.0258,0.0293,0.0319,0.0377,0.042,0.0494,0.0557,0.0656,0.0743,0.0839,0.0944,0.1042,0.1051,0.11,0.1117,0.1144,0.1144,0.1125,0.1168,0.117,0.106,0.1107,0.1149,0.1156,0.1157,0.1158,0.1159,0,0.0263,0.0289,0.0337,0.0405,0.0432,0.0472,0.0583,0.0652,0.0786,0.087,0.0978,0.1064,0.116,0.1147,0.1208,0.1202,0.1183,0.1179,0.118,0.1134,0.1111,0.11,0.1167,0.1166,0.1166,0.1165,0.1165,0,0.0255,0.0306,0.0349,0.0371,0.0452,0.0496,0.0557,0.0666,0.0741,0.0908,0.0979,0.1108,0.1192,0.122,0.1239,0.1236,0.1265,0.1262,0.1173,0.1167,0.1236,0.1233,0.1262,0.1261,0.1261,0.1261,0.1261,0,0.0256,0.0287,0.0349,0.0371,0.044,0.0501,0.0582,0.0662,0.0775,0.0863,0.1009,0.1083,0.1211,0.1254,0.1255,0.1237,0.1288,0.1178,0.117,0.1222,0.1218,0.1237,0.1234,0.1262,0.1262,0.1262,0.1262,0,0.0242,0.0278,0.0324,0.0402,0.0438,0.0492,0.0599,0.0643,0.0767,0.0878,0.0954,0.1092,0.1167,0.1238,0.1272,0.1244,0.124,0.1198,0.1242,0.1236,0.1118,0.1114,0.1128,0.1126,0.1124,0.1122,0.1121,0,0.0237,0.0259,0.0339,0.0368,0.0406,0.0489,0.0541,0.0657,0.0709,0.0861,0.0913,0.1027,0.1114,0.1117,0.118,0.1204,0.1171,0.1164,0.1148,0.1116,0.1108,0.1107,0.1105,0.1118,0.1118,0.1117,0.1117,0,0.0222,0.0249,0.0281,0.0343,0.0398,0.0453,0.0538,0.0571,0.07,0.0811,0.088,0.0943,0.1001,0.1062,0.1084,0.1086,0.1191,0.1144,0.1148,0.1133,0.1104,0.1097,0.1098,0.111,0.1111,0.1112,0.1112,0,0.0207,0.0219,0.0258,0.031,0.0363,0.0397,0.0452,0.0519,0.0589,0.0759,0.0759,0.0876,0.0969,0.0994,0.1011,0.1035,0.1022,0.0995,0.1007,0.1014,0.0979,0.0926,0.0872,0,0,0,0,0,0.0196,0.0195,0.0223,0.0271,0.0311,0.0346,0.0436,0.0488,0.0609,0.0639,0.0705,0.0766,0.0831,0.0873,0.0878,0.0955,0.1016,0.0955,0.0987,0.1074,0.1082,0.1053,0,0,0,0,0,0,0.0182,0.0202,0.0204,0.0217,0.0234,0.0282,0.0328,0.0408,0.0439,0.0565,0.0601,0.071,0.0777,0.0815,0.0855,0.0874,0.0878,0.1027,0.1025,0.107,0.1077,0.1083,0.1056,0,0,0,0,0]},{"header":{"parameterUnit":"m.s-1","parameterCategory":2,"la1":30.2991,"la2":30.254,"lo1":-89.0895,"lo2":-89.0444,"dx":0.0017,"dy":0.0017,"nx":28,"ny":28,"refTime":"2022-11-03T21:00:00:Z","depth":"4","parameterNumber":3,"parameterNumberName":"V-component_of_CURRENTS"},"data":[0,0,0,0,0,0,0,0,0,0,0,0,0,0,0,0,0,0,0,0,0,0,0,0,0,0,0,0,0,0,0,0,0,0,0,0,0,0,0,0,0,0,0,0,0,0,0,0,0,0,0,0,0,0,0,0,0,0,0.0326,0.0325,0,0.0272,0.0272,0.0271,0.0241,0.0241,0.0241,0.0241,0.0257,0.0257,0.0258,0,0,0,0,0,0,0,0,0,0,0,0,0,0.036,0.036,0.0326,0.0325,0.0324,0.0272,0.0272,0.0271,0.0241,0.0241,0.0241,0.0241,0.0256,0.0257,0.0258,0,0,0,0,0,0,0,0,0,0,0,0,0,0.033,0.036,0.0326,0.0303,0.03,0.0272,0.0272,0.0271,0.0242,0.0241,0.0241,0.0241,0.0256,0.0257,0.0258,0.0267,0,0,0.026,0.0261,0,0,0,0,0,0,0,0,0.0332,0.0329,0.0307,0.0304,0.0301,0.0263,0.0289,0.0273,0.0242,0.0265,0.0241,0.0241,0.0265,0.0265,0.0255,0.0268,0.0269,0.026,0.0261,0.0261,0.0262,0,0,0,0,0,0,0,0.0334,0.0331,0.0305,0.0306,0.0303,0.028,0.0276,0.0285,0.0269,0.0263,0.026,0.0253,0.0264,0.0255,0.0256,0.0269,0.026,0.0261,0.0262,0.0262,0.0174,0.0171,0,0,0,0,0,0,0.0342,0.0333,0.0307,0.0304,0.0316,0.028,0.0276,0.0276,0.0267,0.0264,0.0253,0.0252,0.0253,0.0255,0.0256,0.0208,0.0261,0.0262,0.0263,0.0177,0.0173,0.017,0,0,0,0,0,0,0.0343,0.034,0.0309,0.0316,0.031,0.028,0.028,0.0275,0.0258,0.0259,0.0258,0.0241,0.0253,0.0255,0.0238,0.0211,0.0262,0.0263,0.018,0.0176,0.0172,0.0151,0,0,0,0,0,0,0.0344,0.0341,0.0359,0.0317,0.031,0.0303,0.028,0.0274,0.0254,0.0251,0.0248,0.0249,0.0253,0.0237,0.0239,0.0213,0.0264,0.0184,0.0178,0.0173,0.0155,0.0146,0.0139,0,0,0,0,0,0.0346,0.0358,0.036,0.0357,0.0331,0.0304,0.0299,0.0276,0.0253,0.0257,0.0228,0.0249,0.0203,0.0236,0.0239,0.0213,0.0186,0.018,0.0173,0.0159,0.0148,0.0139,0,0,0,0,0,0,0.0376,0.0355,0.0356,0.0362,0.0344,0.0299,0.0307,0.0272,0.025,0.0249,0.0234,0.0233,0.0197,0.0203,0.0239,0.0162,0.019,0.0184,0.0178,0.0168,0.016,0.0242,0.0265,0,0,0,0,0,0.0395,0.0403,0.0374,0.0382,0.0381,0.0342,0.0331,0.0307,0.0275,0.0264,0.0234,0.0204,0.0173,0.0172,0.0148,0.0133,0.0153,0.0105,0.0097,0.0091,0.0153,0.0113,0.0109,0.0149,0.0149,0.0149,0,0,0.0409,0.0398,0.0405,0.039,0.0382,0.0385,0.0336,0.0321,0.0319,0.0273,0.0249,0.018,0.0157,0.0118,0.0103,0.0126,0.0081,0.0083,0.0078,0.0146,0.0106,0.0103,0.01,0.0145,0.0146,0.0146,0,0,0.0432,0.0438,0.0455,0.0446,0.043,0.0414,0.0407,0.0349,0.0333,0.0291,0.0235,0.0161,0.0119,0.0088,0.0073,0.0013,0.0031,-0.003,0.0017,-0.0026,-0.0027,-0.0028,-0.0026,-0.0026,-0.0024,-0.0024,-0.0024,0,0.0454,0.0465,0.0454,0.0463,0.0466,0.0429,0.044,0.0427,0.0356,0.0343,0.029,0.0162,0.0119,0.009,0.0041,0.0005,-0.0007,0.0061,-0.003,-0.0031,-0.0031,-0.0028,-0.0028,-0.0025,-0.0025,-0.0025,-0.0025,0,0.0479,0.0497,0.0506,0.052,0.0524,0.0523,0.051,0.0489,0.0438,0.0399,0.0325,0.0225,0.016,0.0088,0.0053,0.0004,-0.0001,-0.0043,0.0012,-0.0035,-0.0031,-0.003,-0.0028,-0.0027,-0.0027,-0.0026,0,0,0.0501,0.0523,0.0527,0.0545,0.055,0.0548,0.0574,0.0573,0.0566,0.0477,0.0452,0.033,0.0247,0.0223,0.0125,0.0073,0.0013,0.0012,0.0011,0.005,-0.0055,-0.0085,-0.0087,-0.0062,-0.0062,-0.0062,-0.0055,0,0.0527,0.0559,0.0562,0.0601,0.0622,0.0616,0.0637,0.0632,0.0591,0.0553,0.0475,0.0408,0.0314,0.0238,0.0175,0.0041,0.0015,0.0019,-0.004,-0.0039,-0.0034,-0.0087,-0.0061,-0.0054,-0.0054,-0.0054,-0.0054,0,0.055,0.0569,0.0614,0.0641,0.0651,0.0673,0.0693,0.07,0.0684,0.0649,0.0593,0.0512,0.0436,0.0338,0.0194,0.019,0.0096,0.0003,-0.0,0.0003,-0.0068,0.0001,-0.0052,-0.0053,-0.0053,-0.0053,-0.0053,0,0.0566,0.0603,0.0643,0.0653,0.0682,0.0708,0.0728,0.0726,0.0727,0.072,0.0689,0.0608,0.0531,0.0419,0.0223,0.0201,0.0063,0.0012,-0.0071,-0.0072,-0.003,-0.0029,-0.0042,-0.0042,-0.0042,-0.0042,-0.0042,0,0.0582,0.061,0.0657,0.0674,0.0723,0.0737,0.0768,0.0781,0.0776,0.0776,0.0737,0.0685,0.0534,0.0419,0.0276,0.0106,0.0116,-0.0032,-0.0074,-0.0047,-0.0048,-0.0031,-0.0029,-0.0041,-0.0041,-0.0041,-0.0042,0,0.0583,0.0615,0.0659,0.0707,0.0734,0.0769,0.0814,0.0816,0.0827,0.0826,0.0832,0.0741,0.0602,0.0461,0.026,0.0159,0.001,-0.0044,0.004,-0.0003,-0.0093,-0.0094,-0.0101,-0.0102,-0.0103,-0.0103,-0.0104,0,0.0578,0.0607,0.0684,0.0715,0.0743,0.0798,0.0829,0.0858,0.0866,0.0835,0.0832,0.072,0.0644,0.0386,0.0223,0.0037,-0.0017,-0.005,-0.0093,-0.0059,-0.01,-0.0099,-0.0099,-0.0105,-0.0105,-0.0106,-0.0106,0,0.0564,0.0601,0.0634,0.0716,0.077,0.082,0.0873,0.0875,0.0893,0.0901,0.082,0.0696,0.0549,0.0362,0.0225,0.0069,-0.0009,-0.006,-0.006,-0.01,-0.0065,-0.0105,-0.0103,-0.0109,-0.0109,-0.0108,-0.0108,0,0.0548,0.0575,0.0637,0.0703,0.0772,0.0824,0.0849,0.0858,0.0871,0.085,0.0806,0.0667,0.0589,0.0377,0.0228,0.01,0.0057,0.0015,0.0011,0.0013,0.0021,0.0081,0.0068,0,0,0,0,0,0.0532,0.0568,0.0618,0.0702,0.0763,0.0821,0.0868,0.0882,0.09,0.0849,0.0833,0.07,0.0479,0.0376,0.0243,0.0199,0.0031,0.0037,-0.0019,-0.0126,-0.0122,-0.0138,0,0,0,0,0,0,0.0524,0.0574,0.061,0.0688,0.0743,0.0826,0.0857,0.0867,0.0842,0.0832,0.0715,0.0678,0.0463,0.0567,0.0247,0.0206,0.0152,-0.0054,-0.0057,-0.0128,-0.0125,-0.0122,-0.0136,0,0,0,0,0]}]]